Terminal Aerodrome Forecast
Issued by NWS

Home | Current Version | Previous Version | Text Only | Print | Product List | Glossary On
Versions: 1 2 3 4 5 6 7 8 9 10 11 12 13 14 15 16 17 18 19 20
000
FTUS43 KILX 052300
TAFDEC
TAF
KDEC 052320Z 0600/0624 31008KT P6SM SKC
     FM060200 VRB03KT P6SM SKC
     FM061200 19006KT P6SM BKN120
     FM061500 19015G20KT P6SM BKN120=

USA.gov is the U.S. government's official web portal to all federal, state and local government web resources and services.